Regional Weather Roundup
Issued by NWS

Home | Current Version | Previous Version | Graphics & Text | Print | Product List | Glossary On
Versions: 1 2 3 4 5 6 7 8 9 10 11 12 13 14 15 16 17 18 19 20 21 22 23 24 25 26 27 28 29 30 31 32 33 34 35 36 37 38 39 40 41 42 43 44 45 46 47 48 49 50
000
ASUS43 KDMX 300608
RWRIA

WEATHER ROUNDUP FOR IOWA
NATIONAL WEATHER SERVICE DES MOINES IA
100 AM CDT SAT JUL 30 2016

NOTE: "FAIR" INDICATES FEW OR NO CLOUDS BELOW 12,000 FEET WITH NO
SIGNIFICANT WEATHER AND/OR OBSTRUCTIONS TO VISIBILITY.

* - THESE STATIONS ARE NOT NWS STATIONS...THUS NOT UNDER NWS
QUALITY CONTROL.  THEY ALSO DO NOT REPORT WEATHER SUCH
AS PRECIPITATION OR FOG.

IAZ001>003-012>014-020>022-031>034-043>046-300700-
   NORTHWEST IOWA

CITY           SKY/WX    TMP DP  RH WIND       PRES   REMARKS
CARROLL *      PTCLDY    63  63 100 N3        30.03R
CHEROKEE *     CLOUDY    61  61 100 N3        30.04F
DENISON *      CLOUDY    61  59  94 CALM      30.02S
LE MARS *      PTCLDY    61  59  94 CALM      30.05F
SHELDON *      MOCLDY    55  55 100 CALM      30.05F
SIOUX CITY     PTCLDY    66  61  84 SE5       30.03F
6HR MIN TEMP:  66; 6HR MAX TEMP:  80;

SPENCER        CLEAR     56  54  93 W3        30.06S
6HR MIN TEMP:  55; 6HR MAX TEMP:  76;

STORM LAKE *   CLOUDY    63  61  94 N5        30.05F
$$

IAZ055>058-069>071-079>083-090>094-300700-
   SOUTHWEST IOWA

CITY           SKY/WX    TMP DP  RH WIND       PRES   REMARKS
ATLANTIC *     CLOUDY    63  63 100 CALM      30.03S
CLARINDA *       N/A     63  63 100 MISG      30.04F
COUNCIL BLFS *   N/A     63  61  94 CALM      30.04S
CRESTON *      PTCLDY    63  61  94 N5        30.04R
HARLAN  *      PTCLDY    61  61 100 CALM      30.07S
LAMONI         CLEAR     62  62 100 W6        30.02R
6HR MIN TEMP:  62; 6HR MAX TEMP:  73;

RED OAK *      CLOUDY    63  61  94 CALM      30.03S
SHENANDOAH *   CLOUDY    63  63 100 CALM      30.04R
$$

IAZ047>049-059>061-072>074-084-300700-
   CENTRAL IOWA

CITY           SKY/WX    TMP DP  RH WIND       PRES   REMARKS
AMES           CLOUDY    68  66  93 N3        30.01S
6HR MIN TEMP:  66; 6HR MAX TEMP:  72;

ANKENY *         N/A    N/A N/A N/A MISG        N/A
BOONE *          N/A     66  64  94 N5        30.01S
CHARITON *       N/A    N/A N/A N/A MISG        N/A
DES MOINES     CLOUDY    69  65  86 NE5       30.00S
6HR MIN TEMP:  68; 6HR MAX TEMP:  71; 6HR PCP: TRACE;

GRINNELL*      CLEAR     65  64  94 NE3       30.00S
KNOXVILLE *    CLOUDY    66  63  88 NW3       29.99R
MARSHALLTOWN   MOCLDY    64  64 100 N5        29.99F
6HR MIN TEMP:  62; 6HR MAX TEMP:  71;

NEWTON *       CLOUDY    68  66  94 N6        29.99F
PELLA *        PTCLDY    64  63  96 CALM      30.00F
PERRY *          N/A     64  63  98 N3        30.01S
$$

IAZ004>006-015-016-023>025-035-036-300700-
   NORTH CENTRAL IOWA

CITY           SKY/WX    TMP DP  RH WIND       PRES   REMARKS
ALGONA *       CLOUDY    66  63  88 N6        30.04S
ESTHERVILLE    PTCLDY    56  56 100 NW3       30.05S
6HR MIN TEMP:  56; 6HR MAX TEMP:  73;

FORT DODGE *   CLEAR     63  63 100 CALM      30.03F
MASON CITY     CLOUDY    66  64  93 CALM      30.04S
6HR MIN TEMP:  66; 6HR MAX TEMP:  72;

FOREST CITY *  CLOUDY    66  61  82 CALM      30.03S
IOWA FALLS *   CLOUDY    67  64  91 CALM      30.04R
$$

IAZ007>011-017>019-026>030-037>042-050>054-066-300700-
   NORTHEAST IOWA

CITY           SKY/WX    TMP DP  RH WIND       PRES   REMARKS
CEDAR RAPIDS   CLOUDY    69  68  96 N3        29.98S
6HR MIN TEMP:  68; 6HR MAX TEMP:  70;

CHARLES CITY * CLOUDY    66  66 100 NE5       30.03S
CLINTON *      CLEAR     67  65  93 E5        29.97S
DECORAH *      CLOUDY    66  66 100 CALM      30.02S FOG
DUBUQUE        CLEAR     66  64  93 NE6       30.00S
6HR MIN TEMP:  66; 6HR MAX TEMP:  70; 6HR PCP:  0.55;

MONTICELLO *   MOCLDY    68  66  94 CALM      29.98S
OELWEIN *      CLOUDY    66  66 100 N7        30.02S
WATERLOO       CLOUDY    66  64  93 NW5       30.00R
6HR MIN TEMP:  65; 6HR MAX TEMP:  69;

$$

IAZ064-065-067-068-078-300700-
   EAST CENTRAL IOWA

CITY           SKY/WX    TMP DP  RH WIND       PRES   REMARKS
DAVENPORT      MOCLDY    68  66  93 NE7       29.97S
6HR MIN TEMP:  66; 6HR MAX TEMP:  75;

IOWA CITY      CLOUDY    69  66  90 NE6       29.98S
6HR MIN TEMP:  69; 6HR MAX TEMP:  73;

MT. PLEASANT * CLOUDY    69  69 100 N5        29.96S FOG
MUSCATINE *    CLEAR     66  64  94 N5        29.96R
QUAD CITIES    CLOUDY    71  67  87 E7        29.96R
6HR MIN TEMP:  70; 6HR MAX TEMP:  73;

$$

IAZ062-063-075>077-085>089-095>099-300700-
   SOUTHEAST IOWA

CITY           SKY/WX    TMP DP  RH WIND       PRES   REMARKS
BURLINGTON     CLOUDY    68  67  96 N6        29.95S
6HR MIN TEMP:  67; 6HR MAX TEMP:  73;

FAIRFIELD *    CLOUDY    68  66  94 N3        29.97S
KEOKUK *       PTCLDY    68  66  94 NW5       29.96R
CENTERVILLE *  CLOUDY    66  64  94 CALM      30.01S
OTTUMWA        CLOUDY    67  64  90 NW5       29.98S
6HR MIN TEMP:  65; 6HR MAX TEMP:  72;

WASHINGTON *   CLOUDY    68  66  94 N6        29.98S
$$

ABBREVIATIONS USED IN REMARKS
   TC - TEMPERATURES IN CELSIUS
  WCI - WIND CHILL INDEX
   HX - HEAT INDEX
  VSB - VISIBILITY
$$





USA.gov is the U.S. government's official web portal to all federal, state and local government web resources and services.